Wind_Speed
34 39 39 35 31 24 22 24 22 23 26 25 24 25 25 25 24 24 24 23 23 22 20 19 17 17 17 16 16 13 11 11 11 10 11 11 11 11 12 12 12 12
34 38 42 39 35 28 25 25 23 22 25 24 23 22 22 22 22 24 25 23 22 21 20 19 18 18 18 17 16 14 12 12 12 13 14 14 12 11 11 12 11 12
33 34 41 42 39 34 31 29 24 22 24 23 21 21 22 21 20 23 26 23 22 21 20 20 20 19 19 18 17 15 14 14 14 14 15 16 15 13 13 13 13 13
33 34 36 39 42 40 35 32 27 24 25 22 19 21 24 22 20 23 26 24 22 22 21 21 20 19 20 18 16 15 15 15 15 14 15 16 16 15 15 15 15 16
34 32 29 33 40 40 38 35 30 28 27 22 20 23 24 23 23 24 26 26 23 23 22 21 21 21 21 18 16 16 16 16 15 15 15 16 16 15 15 15 16 17
33 31 29 31 33 36 40 36 28 28 29 23 22 24 24 25 26 26 27 27 25 25 24 22 22 23 21 19 17 17 17 16 16 15 15 16 16 16 16 16 16 17
32 32 31 30 30 34 36 33 29 30 30 25 22 23 25 26 27 28 28 28 27 26 25 24 24 24 22 20 19 19 18 17 16 16 15 16 16 15 15 16 16 17
30 31 30 30 33 34 30 32 37 33 28 26 23 22 26 29 29 30 30 29 28 27 26 25 25 24 23 21 20 19 18 17 17 16 16 16 15 15 16 16 17 18
27 30 31 30 32 32 29 36 43 33 26 28 25 22 28 32 32 31 30 30 29 28 27 26 25 25 23 21 20 20 19 17 17 16 16 15 15 15 16 17 17 19
27 31 33 32 33 31 30 39 43 34 29 28 24 24 30 33 33 32 31 31 30 29 28 27 27 26 23 21 21 20 19 17 17 17 16 15 15 16 17 17 18 19
28 31 33 36 36 31 31 38 38 33 32 29 23 24 30 34 34 33 32 33 32 31 30 28 28 26 23 23 22 20 19 18 17 17 16 15 16 17 17 18 19 19
29 32 34 36 36 32 32 34 33 31 33 29 23 24 31 34 35 33 33 34 33 32 30 28 28 26 24 23 22 21 20 19 17 17 16 16 17 18 18 19 20 20
28 31 32 34 36 34 30 29 30 32 33 28 23 25 31 35 35 34 34 34 34 33 31 29 28 27 26 24 22 21 21 19 18 17 16 16 18 19 20 21 21 22
27 28 30 32 34 32 29 28 30 33 33 29 24 25 31 35 35 34 34 34 35 34 32 31 29 28 27 25 23 22 20 19 19 18 17 18 19 21 21 22 23 23
26 26 29 31 33 32 31 32 33 34 34 32 26 25 30 35 34 34 35 35 36 35 34 33 31 30 29 26 25 23 22 21 20 18 18 19 21 22 23 24 24 24
26 27 28 30 33 34 33 33 34 33 32 32 28 25 30 35 35 35 36 37 37 37 36 35 33 31 29 26 24 24 23 21 20 18 18 20 22 24 24 25 25 25
27 28 28 30 33 34 33 33 34 34 33 30 27 25 30 36 37 35 37 38 39 38 37 35 34 32 29 26 24 23 23 22 20 18 18 20 23 24 25 25 26 26
29 30 30 32 33 33 33 33 34 36 34 31 28 26 28 36 38 36 38 40 40 39 37 36 35 32 29 26 24 23 23 22 20 19 19 21 24 25 25 26 26 27
30 30 32 35 35 33 35 34 34 35 35 33 30 26 27 35 38 36 39 41 40 39 38 36 35 33 30 27 25 23 23 23 21 20 20 22 24 25 26 27 27 27
30 30 32 36 37 36 36 36 35 36 36 34 31 29 31 36 37 37 39 42 41 39 37 36 35 33 31 28 25 24 24 23 22 21 21 23 25 26 27 28 28 28
30 31 32 35 37 37 37 38 38 38 36 32 30 31 34 37 37 36 39 41 41 39 37 36 35 34 32 29 26 25 24 24 23 22 22 24 26 27 28 28 28 29
30 31 33 35 37 38 40 40 39 37 35 32 30 29 33 37 38 36 37 41 42 40 38 37 36 34 32 30 28 27 25 26 25 23 24 26 28 29 29 29 29 29
31 33 36 37 36 38 42 43 41 38 36 36 34 32 34 39 40 37 37 40 41 40 39 38 36 35 34 32 30 29 28 28 27 24 25 28 29 30 30 30 30 29
31 34 38 39 36 38 42 44 42 40 38 36 36 34 36 39 40 38 37 38 38 37 37 36 36 36 36 34 32 31 31 30 27 25 26 28 30 30 30 30 30 29
32 35 38 39 38 39 41 40 38 37 35 33 34 35 37 39 41 40 39 40 39 36 34 35 37 37 37 36 35 34 34 31 27 26 26 28 30 31 31 31 31 29
35 37 39 39 40 40 38 36 35 34 33 33 35 37 38 38 40 42 42 42 41 37 35 36 38 38 39 38 37 36 34 31 28 27 27 29 32 32 32 32 31 30
Wind_Direction
223 231 234 232 227 216 212 216 213 216 220 218 220 223 224 224 222 222 221 219 219 220 221 223 220 218 219 218 220 219 220 226 230 234 232 226 222 221 223 222 220 224
220 226 231 232 229 222 219 221 215 214 221 219 219 221 220 220 219 221 223 221 220 219 219 221 219 219 221 221 223 222 222 230 237 241 237 229 224 221 222 225 224 225
217 219 226 230 232 229 227 226 217 213 221 220 215 216 217 216 213 218 223 221 219 217 217 220 220 220 222 221 223 225 227 235 241 243 238 231 229 228 230 232 232 233
216 217 221 226 232 232 230 228 222 217 221 217 209 212 216 215 211 216 223 221 217 216 217 220 220 220 222 221 223 227 231 235 240 242 239 234 233 233 235 237 237 240
220 218 215 221 227 229 230 231 227 222 222 214 207 213 215 214 213 216 221 220 216 216 218 220 220 220 221 220 221 229 233 233 238 242 239 237 237 236 238 239 238 240
222 218 214 217 220 225 229 228 221 222 223 213 206 215 217 215 218 220 220 220 219 218 219 220 220 220 220 218 220 229 234 234 237 241 240 238 238 238 238 238 237 236
222 219 216 214 215 221 224 222 221 226 224 213 207 214 215 215 219 222 222 221 221 219 219 220 221 220 219 217 220 228 233 235 237 241 241 239 238 237 236 233 230 227
221 218 215 213 216 217 214 220 228 228 220 213 208 208 215 218 219 221 221 221 220 219 219 221 221 220 219 217 220 227 231 235 238 239 239 237 236 235 232 229 225 221
217 217 217 213 214 212 211 222 229 225 216 214 208 206 215 219 219 221 221 220 220 219 219 221 221 220 218 217 221 226 230 235 238 236 235 234 234 232 228 225 220 218
214 216 217 215 214 212 214 223 226 222 217 212 206 208 215 216 218 220 220 219 218 217 218 220 221 219 217 217 221 223 226 234 237 233 230 231 230 226 223 220 217 216
215 216 216 216 216 214 215 219 219 218 217 211 203 207 213 215 218 219 219 219 217 216 218 220 220 218 216 218 221 220 224 232 233 229 229 228 227 223 218 216 214 214
216 217 216 215 214 214 215 215 213 214 216 212 204 206 212 215 217 218 219 218 216 216 217 219 220 218 216 219 220 219 224 230 228 226 228 226 223 219 214 212 212 211
214 215 215 214 214 214 214 211 210 213 214 211 204 206 213 217 216 217 218 217 215 215 215 218 220 218 217 218 220 220 222 226 227 227 228 226 221 215 211 211 210 208
216 213 215 213 212 213 211 208 210 214 214 210 205 206 214 218 216 216 217 215 215 215 215 217 219 219 218 217 219 222 222 225 227 227 227 225 218 212 210 210 209 208
215 211 213 212 211 211 210 210 212 214 213 211 208 207 213 217 217 217 215 213 214 215 216 218 219 219 219 217 218 221 222 225 227 225 227 225 216 212 210 209 210 209
210 211 213 211 210 210 210 211 210 211 211 210 209 208 213 216 217 217 215 212 213 214 215 217 219 219 219 218 220 224 223 225 226 225 226 223 215 213 211 209 210 210
206 212 211 208 210 211 210 208 207 209 210 209 208 207 211 215 216 216 214 211 212 214 215 216 218 219 219 217 220 224 223 223 226 226 226 222 215 213 212 211 210 211
206 211 211 209 210 211 210 207 207 209 209 209 209 207 208 212 214 216 214 211 211 214 215 217 218 218 218 217 219 223 223 223 225 226 225 221 215 213 213 213 212 213
205 208 212 212 209 211 212 208 204 207 209 210 209 205 206 211 213 215 215 212 211 213 216 218 218 217 216 216 218 223 225 224 224 226 225 220 215 213 213 213 213 215
205 209 214 212 208 211 212 206 205 209 210 209 208 208 211 212 211 213 215 212 211 214 217 219 218 215 214 214 215 222 227 224 223 225 223 218 215 213 213 214 215 216
204 208 212 209 207 210 210 207 208 210 208 207 208 211 213 212 210 212 214 212 212 214 217 218 217 214 213 213 215 220 223 222 224 225 221 216 213 212 213 215 215 216
204 206 208 207 207 210 209 207 208 209 208 208 207 209 213 211 208 211 214 214 214 216 218 219 216 213 212 214 215 216 219 221 223 223 220 215 212 211 212 213 215 216
204 205 207 208 207 206 206 207 211 212 212 214 214 214 216 213 208 210 214 215 216 218 221 221 216 211 212 215 214 213 215 220 222 221 218 214 212 211 211 212 214 214
203 205 209 209 204 203 207 213 218 218 218 221 220 216 216 215 211 210 213 214 214 217 221 222 217 212 212 215 214 212 214 219 222 221 217 213 212 212 211 211 213 212
201 205 208 206 204 208 215 219 220 220 220 221 218 213 216 218 215 211 213 213 212 213 218 220 218 214 213 215 215 212 214 218 220 220 217 213 212 213 211 211 213 212
204 205 206 207 211 216 220 219 217 216 216 216 215 213 216 220 218 215 215 215 213 214 217 218 218 216 214 215 215 213 213 216 218 220 218 213 212 213 211 211 213 212
Height
1498 1499 1501 1504 1505 1509 1511 1513 1516 1518 1520 1522 1524 1527 1529 1531 1532 1533 1535 1537 1538 1540 1541 1542 1543 1544 1544 1545 1545 1546 1548 1548 1549 1549 1549 1549 1550 1551 1552 1553 1554 1555
1494 1496 1498 1500 1501 1504 1507 1509 1513 1515 1516 1518 1521 1524 1527 1528 1529 1530 1532 1534 1535 1537 1538 1539 1540 1541 1542 1542 1543 1543 1545 1545 1545 1546 1546 1547 1548 1549 1550 1550 1551 1552
1490 1492 1494 1496 1497 1499 1502 1505 1509 1511 1513 1515 1518 1521 1523 1525 1526 1527 1529 1531 1532 1534 1536 1536 1537 1538 1539 1540 1540 1541 1542 1543 1543 1544 1544 1545 1546 1546 1547 1548 1548 1549
1485 1487 1490 1492 1494 1496 1499 1501 1504 1507 1509 1512 1515 1517 1519 1521 1523 1524 1525 1528 1530 1532 1533 1534 1535 1536 1537 1537 1538 1539 1540 1540 1541 1541 1542 1543 1543 1544 1544 1545 1546 1546
1481 1484 1487 1489 1491 1492 1495 1497 1499 1502 1505 1508 1511 1513 1515 1518 1520 1521 1522 1524 1527 1529 1530 1531 1532 1533 1534 1535 1536 1537 1537 1538 1538 1539 1540 1540 1541 1541 1542 1542 1543 1544
1477 1480 1483 1485 1487 1489 1491 1493 1496 1498 1501 1505 1507 1509 1512 1514 1516 1518 1519 1521 1523 1525 1526 1528 1529 1531 1532 1533 1534 1535 1535 1535 1536 1537 1537 1537 1538 1538 1539 1540 1540 1541
1473 1476 1479 1482 1483 1485 1487 1489 1491 1494 1497 1500 1504 1506 1508 1511 1513 1515 1517 1519 1521 1522 1524 1525 1526 1528 1529 1530 1531 1532 1533 1533 1533 1534 1534 1535 1535 1536 1537 1537 1538 1539
1469 1472 1475 1478 1479 1481 1484 1485 1487 1489 1493 1496 1499 1502 1505 1508 1510 1512 1514 1516 1518 1519 1521 1522 1524 1525 1526 1528 1529 1530 1530 1530 1531 1531 1532 1532 1533 1534 1534 1535 1536 1537
1466 1468 1471 1474 1475 1478 1480 1481 1482 1486 1489 1491 1495 1499 1501 1504 1507 1508 1511 1513 1514 1516 1518 1519 1521 1522 1524 1525 1526 1527 1527 1528 1528 1528 1529 1530 1530 1531 1532 1533 1534 1535
1461 1464 1467 1470 1471 1474 1475 1476 1479 1482 1484 1487 1491 1495 1497 1501 1503 1505 1508 1509 1511 1513 1515 1516 1517 1519 1521 1522 1523 1524 1525 1525 1525 1526 1526 1527 1528 1529 1529 1530 1531 1532
1457 1459 1462 1464 1467 1469 1471 1473 1475 1478 1480 1483 1487 1491 1493 1496 1499 1502 1504 1505 1507 1510 1511 1513 1514 1516 1518 1519 1520 1521 1522 1522 1522 1523 1524 1524 1525 1526 1527 1528 1529 1530
1452 1455 1457 1459 1462 1465 1467 1469 1472 1474 1476 1480 1484 1487 1489 1492 1495 1498 1500 1502 1504 1506 1508 1510 1511 1513 1515 1516 1517 1518 1519 1519 1519 1520 1521 1522 1522 1523 1525 1526 1527 1528
1447 1449 1451 1454 1457 1461 1463 1465 1468 1470 1472 1476 1480 1483 1485 1487 1491 1494 1496 1499 1501 1503 1505 1507 1508 1510 1511 1513 1514 1515 1516 1516 1517 1517 1518 1519 1520 1521 1522 1523 1524 1526
1441 1444 1447 1449 1453 1457 1460 1462 1464 1466 1469 1472 1476 1479 1481 1483 1487 1490 1492 1496 1498 1500 1502 1503 1505 1506 1508 1509 1511 1512 1513 1513 1514 1515 1516 1516 1518 1519 1520 1521 1522 1523
1437 1441 1443 1445 1448 1452 1455 1457 1460 1462 1465 1469 1472 1475 1477 1480 1483 1486 1488 1492 1494 1496 1498 1499 1501 1503 1504 1506 1508 1509 1510 1511 1511 1512 1513 1514 1515 1517 1518 1519 1520 1521
1434 1437 1440 1442 1444 1447 1450 1453 1456 1459 1462 1465 1468 1471 1473 1476 1479 1482 1484 1487 1490 1492 1493 1495 1497 1499 1501 1504 1505 1507 1508 1509 1509 1510 1511 1512 1513 1515 1516 1517 1518 1520
1430 1433 1436 1438 1441 1443 1446 1449 1452 1454 1458 1461 1465 1467 1469 1472 1475 1478 1480 1483 1485 1487 1489 1491 1494 1496 1499 1501 1503 1504 1506 1506 1507 1508 1509 1510 1511 1512 1514 1515 1517 1518
1425 1428 1431 1434 1437 1440 1443 1446 1448 1451 1454 1457 1460 1463 1465 1468 1471 1474 1476 1479 1481 1483 1486 1488 1491 1493 1496 1499 1500 1502 1503 1504 1505 1505 1506 1507 1509 1510 1512 1513 1514 1515
1421 1424 1427 1429 1432 1436 1439 1442 1445 1447 1450 1453 1456 1459 1461 1463 1467 1470 1472 1475 1477 1480 1482 1485 1487 1490 1493 1495 1497 1499 1500 1501 1502 1502 1503 1504 1506 1507 1509 1510 1512 1513
1417 1420 1422 1423 1428 1432 1434 1438 1441 1443 1446 1449 1452 1455 1457 1459 1463 1466 1468 1471 1474 1476 1479 1482 1484 1487 1490 1492 1494 1495 1497 1498 1498 1498 1499 1500 1502 1504 1505 1507 1509 1510
1413 1416 1417 1419 1423 1427 1430 1433 1436 1438 1442 1446 1448 1450 1452 1456 1459 1462 1464 1468 1471 1473 1476 1478 1481 1484 1487 1489 1490 1492 1494 1495 1495 1495 1496 1497 1499 1500 1502 1504 1505 1507
1408 1411 1413 1415 1418 1422 1425 1428 1431 1434 1438 1442 1444 1447 1449 1452 1455 1458 1461 1465 1467 1470 1473 1475 1478 1481 1484 1485 1487 1489 1491 1492 1492 1493 1493 1494 1496 1497 1499 1500 1502 1504
1403 1406 1408 1410 1413 1416 1419 1422 1426 1430 1434 1437 1440 1444 1446 1448 1451 1454 1458 1461 1463 1466 1469 1471 1474 1478 1480 1482 1484 1486 1488 1488 1489 1490 1491 1492 1493 1495 1496 1497 1499 1501
1398 1401 1403 1405 1408 1411 1413 1417 1421 1426 1429 1432 1436 1440 1442 1444 1447 1451 1455 1457 1460 1462 1465 1467 1471 1474 1477 1479 1481 1483 1484 1485 1486 1487 1488 1490 1492 1493 1494 1495 1496 1498
1395 1397 1399 1401 1404 1406 1409 1413 1417 1421 1425 1429 1433 1437 1439 1441 1445 1448 1451 1453 1456 1459 1462 1464 1467 1470 1473 1475 1477 1479 1481 1482 1484 1485 1486 1487 1489 1491 1492 1493 1494 1496
1391 1393 1395 1397 1399 1402 1405 1409 1413 1417 1421 1425 1428 1432 1435 1438 1441 1444 1447 1449 1453 1456 1459 1461 1463 1466 1469 1471 1473 1476 1478 1480 1481 1482 1483 1485 1486 1488 1490 1491 1492 1493